CW2882 Weather Reports


time (UTC)temp
C
wind
direction
speed
KPH
gust
KPH
rain 1hr
cm
rain 24hr
cm
rain mn
cm
humidity
%
barometer
mb
20260503211525 20 319 0.0 6.4 0.00 0.00 0.00 60 1013.0
20260503210022 19 41 4.8 9.7 0.00 0.00 0.00 60 1013.4
20260503204519 18 328 1.6 11.3 0.00 0.00 0.00 63 1013.6
20260503203017 18 24 4.8 11.3 0.00 0.00 0.00 63 1013.8
20260503201517 18 58 4.8 9.7 0.00 0.00 0.00 65 1014.0
20260503200014 18 303 4.8 11.3 0.00 0.00 0.00 64 1014.2
20260503194513 18 1 4.8 11.3 0.00 0.00 0.00 63 1014.1
20260503193011 18 1 3.2 9.7 0.00 0.00 0.00 65 1014.2
20260503191516 18 10 3.2 8.0 0.00 0.00 0.00 65 1014.3
20260503190008 18 311 1.6 6.4 0.00 0.00 0.00 65 1014.4
20260503184507 18 316 1.6 6.4 0.00 0.00 0.00 64 1014.5
20260503183007 18 344 0.0 6.4 0.00 0.00 0.00 67 1014.7
20260503181504 18 16 1.6 9.7 0.00 0.00 0.00 66 1014.7
20260503180117 17 12 3.2 11.3 0.00 0.00 0.00 67 1014.9
20260503174600 17 46 1.6 9.7 0.00 0.00 0.00 67 1015.0
20260503173108 17 360 3.2 8.0 0.00 0.00 0.00 69 1015.1
20260503171555 17 359 4.8 8.0 0.00 0.00 0.00 71 1015.2
20260503081531 14 136 0.0 1.6 0.00 0.00 0.00 67 1015.2
20260503071504 14 134 0.0 1.6 0.00 0.00 0.00 67 1015.1
20260503060104 16 126 1.6 4.8 0.00 0.00 0.00 64 1014.8
20260503054605 16 126 0.0 3.2 0.00 0.00 0.00 63 1014.9
20260503053059 15 129 0.0 3.2 0.00 0.00 0.00 64 1014.9
20260503051559 15 117 0.0 3.2 0.00 0.00 0.00 65 1014.9
20260503050058 16 121 0.0 1.6 0.00 0.00 0.00 64 1015.0
20260503044609 16 99 0.0 1.6 0.00 0.00 0.00 63 1014.8
20260503043059 16 141 0.0 3.2 0.00 0.00 0.00 62 1014.8
20260503041556 16 107 0.0 0.0 0.00 0.00 0.00 62 1014.7
20260503041502 16 109 0.0 0.0 0.00 0.00 0.00 62 1014.6
20260503034601 16 94 0.0 4.8 0.00 0.00 0.00 60 1014.4
20260503033058 17 117 0.0 1.6 0.00 0.00 0.00 61 1014.2
20260503031554 18 96 0.0 4.8 0.00 0.00 0.00 58 1014.1
20260503030124 19 22 0.0 3.2 0.00 0.00 0.00 55 1014.0
20260503024557 19 72 0.0 4.8 0.00 0.00 0.00 56 1014.0
20260503023051 19 45 1.6 4.8 0.00 0.00 0.00 56 1014.1
20260503021559 19 338 0.0 6.4 0.00 0.00 0.00 57 1014.0
20260503020049 19 41 1.6 8.0 0.00 0.00 0.00 57 1014.2
20260503014601 19 64 3.2 9.7 0.00 0.00 0.00 56 1014.3
20260503013050 20 348 1.6 8.0 0.00 0.00 0.00 54 1014.4
20260503011552 20 58 1.6 6.4 0.00 0.00 0.00 54 1014.5
20260503010048 21 118 0.0 4.8 0.00 0.00 0.00 56 1014.6
20260503004542 21 315 0.0 3.2 0.00 0.00 0.00 55 1014.7
20260503003052 21 352 0.0 3.2 0.00 0.00 0.00 57 1014.7
20260503001537 21 304 0.0 4.8 0.00 0.00 0.00 56 1014.8
20260503000036 20 326 0.0 4.8 0.00 0.00 0.00 57 1014.9
20260502234533 20 37 0.0 6.4 0.00 0.00 0.00 56 1015.1
20260502233030 20 313 0.0 4.8 0.00 0.00 0.00 56 1015.3
20260502231528 20 302 0.0 4.8 0.00 0.00 0.00 57 1015.4
20260502230025 20 297 0.0 6.4 0.00 0.00 0.00 61 1015.5
20260502224521 19 6 3.2 9.7 0.00 0.00 0.00 60 1015.7
20260502223017 18 328 3.2 9.7 0.00 0.00 0.00 65 1015.9
20260502221516 18 300 1.6 6.4 0.00 0.00 0.00 66 1016.1
20260502220013 17 18 1.6 9.7 0.00 0.00 0.00 68 1016.3
20260502214514 17 345 4.8 9.7 0.00 0.00 0.00 70 1016.5
20260502213032 17 50 3.2 9.7 0.00 0.00 0.00 70 1016.7